Location: Boss Branch
(32.3799°N, 97.2508°W)
Time: 15:41:30
(UTC+00:00)

Transit 2A Rocket - All Passes

Search period start: 02 November 2024 00:00
Search period end: 12 November 2024 00:00
Orbit: 583 x 906 km, 66.7° (Epoch: 01 November)

Date Brightness Start Highest point End Pass type
(mag) Time Alt. Az. Time Alt. Az. Time Alt. Az.
02 Nov - 03:14:46 10° NNW 03:19:45 50° ENE 03:24:15 10° SE night (unlit)
02 Nov - 04:59:18 10° WNW 05:01:30 13° WSW 05:03:37 10° SW night (unlit)
02 Nov - 16:03:26 10° ESE 16:05:37 12° ESE 16:07:47 10° E daylight
02 Nov - 17:41:19 10° SSW 17:47:22 82° WNW 17:53:24 10° NNE daylight
02 Nov - 19:28:09 10° WNW 19:30:40 13° NW 19:33:11 10° NNW daylight
03 Nov - 02:30:45 10° N 02:35:02 26° NE 02:39:00 10° ESE visible
03 Nov - 04:13:11 10° NW 04:17:21 27° WSW 04:21:14 10° SSW night (unlit)
03 Nov - 16:57:02 10° S 17:02:54 56° ESE 17:08:46 10° NE daylight
03 Nov - 18:41:10 10° WSW 18:45:42 22° NW 18:50:13 10° N daylight
04 Nov - 01:47:22 10° NNE 01:50:08 14° NE 01:52:48 10° E visible
04 Nov - 03:28:08 10° NW 03:33:05 58° WSW 03:37:33 10° S night (unlit)
04 Nov - 16:13:24 10° SSE 16:18:33 30° ESE 16:23:44 10° NE daylight
04 Nov - 17:55:22 10° SW 18:00:55 37° WNW 18:06:25 10° N daylight
05 Nov - 02:43:34 10° NNW 02:48:37 68° ENE 02:53:12 10° SSE visible
05 Nov - 15:30:47 10° SE 15:34:20 16° ESE 15:37:53 10° ENE daylight
05 Nov - 17:10:16 10° SW 17:16:16 65° WNW 17:22:14 10° NNE daylight
06 Nov - 01:59:22 10° N 02:03:58 34° ENE 02:08:11 10° ESE visible
06 Nov - 03:42:31 10° WNW 03:46:03 20° WSW 03:49:23 10° SSW night (unlit)
06 Nov - 16:25:44 10° SSW 16:31:43 72° ESE 16:37:43 10° NNE daylight
06 Nov - 18:10:51 10° W 18:14:44 17° NW 18:18:35 10° N daylight
07 Nov - 01:15:39 10° N 01:19:09 18° NE 01:22:26 10° E visible
07 Nov - 02:57:09 10° NW 03:01:49 42° WSW 03:06:05 10° S visible
07 Nov - 15:41:47 10° S 15:47:19 39° ESE 15:52:51 10° NE daylight
07 Nov - 17:24:39 10° WSW 17:29:51 29° WNW 17:35:01 10° N daylight
08 Nov - 02:12:23 10° NNW 02:17:25 89° WSW 02:21:59 10° SSE visible
08 Nov - 14:58:38 10° SSE 15:03:02 21° ESE 15:07:25 10° ENE daylight
08 Nov - 16:39:15 10° SW 16:45:08 51° WNW 16:50:57 10° NNE daylight
09 Nov - 01:28:01 10° NNW 01:32:50 44° ENE 01:37:13 10° SE visible
09 Nov - 03:12:04 10° WNW 03:14:41 15° WSW 03:17:11 10° SW visible
09 Nov - 14:17:47 10° ESE 14:18:51 10° ESE 14:19:54 10° E daylight
09 Nov - 15:54:29 10° SSW 16:00:32 90° WNW 16:06:34 10° NNE daylight
09 Nov - 17:40:46 10° W 17:43:44 14° NW 17:46:41 10° NNW daylight
10 Nov - 00:44:04 10° N 00:48:04 23° NE 00:51:47 10° ESE visible
10 Nov - 02:26:13 10° NW 02:30:29 31° WSW 02:34:27 10° S visible
10 Nov - 15:10:16 10° S 15:16:04 50° ESE 15:21:51 10° NE daylight
10 Nov - 16:54:02 10° WSW 16:58:47 24° NW 17:03:29 10° N daylight
11 Nov - 00:00:56 10° NNE 00:03:07 13° NE 00:05:13 10° ENE visible
11 Nov - 01:41:14 10° NNW 01:46:09 66° WSW 01:50:37 10° SSE visible
11 Nov - 14:26:45 10° SSE 14:31:43 27° ESE 14:36:41 10° NE daylight
11 Nov - 16:08:20 10° SW 16:13:59 40° WNW 16:19:35 10° N daylight
